Погода в Даугавпилсе

Погода в Даугавпилсе : погода сейчас, прогноз погоды и архив. Всё, что Вы хотите узнать о погоде в Даугавпилсе!

Поиск расширенной информации на нашем сайте:

Другие новости

Новости СМИ2

Главная страница сайта

Новости сайта

03.07.2017

Напоминаем, что на нашем специализированном сайте Метеоцентр.Азия вы можете получить высокодетализированные автоматические прогнозы погоды по пунктам России, СНГ и мира в авиационном формате (включающие направление и скорость ветра, видимость, явления погоды, количество и форму облачности, нижнюю и верхнюю границу облачности).


Погода в Даугавпилсе - сегодня

Время (UTC), дата Ветер
(°,м/с) 
Видим.   Явления Облачность Т
(°С)
Тd
(°С)
f(%) Тe
(°С)
Pmin
(гПа)
dP
(гПа)
Po
(мм)
O2
(г/м3)
Тmin Tmax R s Состояние
почвы
15 09.12.17 140 (ЮВ) 2-3  н/о    н/о 
+1.3 +0.1 92 +1  1004.6  -0.2  744  298           
18 09.12.17 150 (ЮВ) 1-2  н/о    н/о 
+1.4 +0.2 92 +2  1004.2  -0.4  744  298           
21 09.12.17 230 (ЮЗ) 1-2  н/о    н/о 
+0.3 +0 98 +1  1003.8  -0.4  744  299           
00 10.12.17 тихо () -1  н/о    н/о 
-0.7 -0.9 99 -1  1003.2  -0.7  743  300           
03 10.12.17 180 (Ю) 1-2  н/о    н/о 
-0.5 -1.4 94 1002.6  -0.5  743  300           
06 10.12.17 170 (Ю) 1-2  н/о    н/о 
-0.9 -1.8 94 1002.2  -0.3  743  300           
09 10.12.17 220 (ЮЗ) 1-2  н/о    н/о 
-1.5 -3.7 85 -1  1002.4  0.2  743  301           
12 10.12.17 160 (Ю) 1-2  н/о    н/о 
-0.6 -3.2 83 1001.7  -0.7  742  300           
15 10.12.17 180 (Ю) 2-3  н/о    н/о 
-0.2 -1.9 88 -1  1001.9  0.2  742  300           
18 10.12.17 150 (ЮВ) 2-3  н/о    н/о 
-0.1 -1.6 90 -1  1001.4  -0.5  742  299           
21 10.12.17 100 (В) 1-1  н/о    н/о 
-2.9 -3.2 98 -2  1001.7  0.1  742  303           
00 11.12.17 150 (ЮВ) 2-4  н/о    н/о 
-1.3 -2.5 92 -2  1000.9  -0.7  742  300           
03 11.12.17 120 (ЮВ) 4-6  н/о    н/о 
-2.1 -3.7 89 -5  1000.4  -0.5  741  301           
06 11.12.17 100 (В) 3-5  н/о    н/о 
-2.4 -3.8 90 -4  999.9  -0.6  741  302           
09 11.12.17 120 (ЮВ) 5-8  н/о    н/о 
-1.6 -3.9 84 -5  1000.9  1.1  741  301           
12 11.12.17 120 (ЮВ) 4-7  н/о    н/о 
-1.2 -3.4 85 -4  1000.1  -0.7  741  300           
15 11.12.17 120 (ЮВ) 4-6  н/о    н/о 
-0.7 -2.5 88 -3  1001.4  1.4  742  300           
18 11.12.17 120 (ЮВ) 3-5  н/о    н/о 
-0.2 -1.8 89 -2  1002.7  1.3  743  300           
21 11.12.17 120 (ЮВ) 3-6  н/о    н/о 
+0.3 -0.9 92 -1  1002  -0.7  742  299           
00 12.12.17 120 (ЮВ) 4-8  н/о    н/о 
+0.6 -0.1 95 -2  1001.9  742  298           
03 12.12.17 110 (В) 5-9  н/о    н/о 
+1.2 +0 92 -2  1000.4  -1.5  741  297           
06 12.12.17 120 (ЮВ) 6-8  н/о    н/о 
+1.1 -0.1 92 -2  999.4  -1  740  297           
09 12.12.17 120 (ЮВ) 6-11  н/о    н/о 
+1.5 +0.3 92 -2  997.2  -2.2  739  296           
12 12.12.17 140 (ЮВ) 4-7  н/о    н/о 
+3.1 +1.3 88 +1  995.9  -1.2  738  294           
15 12.12.17 170 (Ю) 2-4  н/о    н/о 
+4.4 +2.4 87 +4  997.4  1.6  739  293           
Время (UTC), дата Ветер
(°,м/с) 
Видим.   Явления Облачность Т
(°С)
Тd
(°С)
f(%) Тe
(°С)
Pmin
(гПа)
dP
(гПа)
Po
(мм)
O2
(г/м3)
Тmin Tmax R s Состояние
почвы

Для получения пояснительной информации подведите курсор к названию столбца.

ПОГОДА в Даугавпилсе - архив

Всё, что Вы хотите узнать о погоде в Даугавпилсе - удобно и подробно!

Выберите нужную дату (начиная с 1 января 2015* года) и нажмите кнопку "Найти".
Будут отображены архивные сводки погоды по пункту Даугавпилс, начиная с указанной даты.


Отображать данные в формате CSV (для использования в таблицах Excel)


Внимание! Наш архив погоды предназначен исключительно для личного некоммерческого использования в познавательных целях. Если Вам необходимы официальные справки о состоянии погоды (для производственных, юридических, коммерческих и т.п. целей), обращайтесь в органы Росгидромета.

*Примечание: данная дата относится к архиву по метеостанциям СССР (Россия, СНГ, Балтия).
Архив по метеостанциям Зарубежной Европы и Азии (кроме Китая) хранится 10 дней, по другим регионам земного шара (Китай, Африка, Америка, Австралия, Океания) - 1 день.

Даугавпилс - район местоположения метеостанции


Название, широта, долгота, высота метеостанции:
Даугавпилс 55.9°ш. 26.6°д. 122 м над ур. моря [Латвия]

Дополнительная информация

В oтличие oт бoльшинства пoгoдных сайтoв мы публикуем пoдрoбную метеoинфoрмацию в детальнoм прoфессиoнальнoм фoрмате.

Характеристики температуры и влажнoсти вoздуха измеряются на высoте 2 м в тени вдали oт зданий и деревьев.
Скoрoсть ветра измеряется на высoте 10 м (на урoвне рoста челoвека скoрoсть ветра ниже в 1.5-2 раза). Если метеoстанция нахoдится в гoрoде или в лесу, тo скoрoсть ветра занижена на 2-4 м/с пo сравнению с oткрытым местoм. Скoрoсть ветра над акватoриями крупных рек и oзёр, а также на вершинах хoлмoв на 2-5 м/с выше, чем в oбычных услoвиях.
Атмoсфернoе давление в разных тoчках местнoсти мoжет значительнo oтличаться oт давления на метеoстанции, в зависимoсти oт услoвий рельефа (при пoдъёме на 10 м давление пoнижается примернo на 1 мм рт.ст.).